This is the latest recevied weather packets stored in our database for station/object WA4ORT. If no packets are shown the sender has not sent any weather packets the latest 10 day(s).
| Time | Temp. | Humidity | Pressure | Rain* | Wind** | Luminosity | Snow |
|---|---|---|---|---|---|---|---|
| 1787433536 | 32.78° C | - | - | 0 mm | 0.89 m/s, 231° | - | - |
| 1787432730 | 32.78° C | - | - | 0 mm | 2.24 m/s, 294° | - | - |
| 1787432638 | 32.78° C | - | - | 0 mm | 2.24 m/s, 294° | - | - |
| 1787431743 | 32.78° C | - | - | 0 mm | 1.34 m/s, 283° | - | - |
| 1787430850 | 32.78° C | - | - | 0 mm | 0.89 m/s, 347° | - | - |
| 1787429125 | 32.22° C | - | - | 0 mm | 0 m/s | - | - |
| 1787429057 | 32.22° C | - | - | 0 mm | 0 m/s | - | - |
| 1787427265 | 32.22° C | - | - | 0 mm | 2.24 m/s, 315° | - | - |
| 1787426370 | 31.67° C | - | - | 0 mm | 2.24 m/s, 270° | - | - |
| 1787425476 | 31.67° C | - | - | 0 mm | 0.45 m/s, 270° | - | - |
| 1787424578 | 30.56° C | - | - | 0 mm | 0 m/s | - | - |
| 1787423684 | 30.56° C | - | - | 0 mm | 2.24 m/s, 329° | - | - |
| 1787421891 | 30.56° C | - | - | 0 mm | 0.89 m/s, 170° | - | - |
| 1787420103 | 29.44° C | - | - | 0 mm | 2.24 m/s, 301° | - | - |
| 1787419205 | 30° C | - | - | 0 mm | 0.45 m/s, 240° | - | - |
| 1787418311 | 29.44° C | - | - | 0 mm | 1.34 m/s, 224° | - | - |
| 1787417416 | 28.89° C | - | - | 0 mm | 1.34 m/s, 49° | - | - |
| 1787415624 | 28.33° C | - | - | 0 mm | 0.89 m/s, 276° | - | - |
| 1787413832 | 27.22° C | - | - | 0 mm | 0.45 m/s, 290° | - | - |
| 1787412938 | 26.67° C | - | - | 0 mm | 1.79 m/s, 335° | - | - |
| 1787412043 | 26.67° C | - | - | 0 mm | 1.79 m/s, 304° | - | - |
| 1787409357 | 25° C | - | - | 0 mm | 0.89 m/s, 294° | - | - |
| 1787403983 | 23.89° C | - | - | 0 mm | 0 m/s | - | - |
| 1787403085 | 23.33° C | - | - | 0 mm | 0 m/s | - | - |
| 1787402247 | 22.78° C | - | - | 0 mm | 0 m/s | - | - |
* Rain latest hour (hover to see other rain measurements)
** Current wind speed in m/s (hover to see current wind gust speed)